Location: Cosy Dell
(34.2789°N, 117.4537°W)
Time: 12:20:12
(UTC+00:00)

Resurs 1-4 Rocket - Pass Details

Date: 14 July 2020
Orbit: 800 x 814 km, 98.6° (Epoch: 08 August)

Event Time Altitude Azimuth Distance (km) Brightness Sun altitude
Rises 09:50:32 0° 5° (N) 3,339 6.3 -27.8°
Reaches altitude 10° 09:52:57 10° 0° (N) 2,402 5.3 -27.6°
Enters shadow 09:57:43 47° 299° (WNW) 1,064 2.6 -27.1°
